COSMOS 2406 - Orbit

View from above orbital plane
View from above orbital plane
View from above satellite
View from above satellite

Ground track
Ground track

The orbit data is extracted from the following two-line orbital elements,

1 28352U 04021A   13142.16706091 -.00000264  00000-0 -12000-3 0   269
2 28352 071.0031 348.6347 0015119 193.2331 305.0734 14.11277545461031
Epoch (UTC): 22 May 2013 04:00:34
Eccentricity: 0.0015119
inclination: 71.0031°
perigee height: 844 km
apogee height: 866 km
right ascension of ascending node: 348.6347°
argument of perigee: 193.2331°
revolutions per day: 14.11277545
mean anomaly at epoch: 305.0734°
orbit number at epoch: 46103

The dashed part of the orbit path shows where the satellite is in the earth's shadow,  

Developed and maintained by Chris Peat, Heavens-Above GmbH. Please read the updated FAQ before sending e-mail. Imprint. DLR